EW0050 Weather Reports


Display with metric or nautical units.
time (UTC)temp
F
wind
direction
speed
MPH
gust
MPH
rain 1hr
in
rain 24hr
in
rain mn
in
humidity
%
barometer
mb
20180425180030 61 257 1.0 3.0 0.00 0.00 0.00 91 1015.3
20180425175520 61 257 1.0 3.0 0.00 0.00 0.00 91 1015.3
20180425175028 61 257 1.0 3.0 0.00 0.00 0.00 91 1015.3
20180425174537 61 257 0.0 3.0 0.00 0.00 0.00 90 1015.2
20180425174026 61 257 0.0 4.0 0.00 0.00 0.00 90 1015.2
20180425173519 61 257 1.0 8.0 0.00 0.00 0.00 90 1015.3
20180425173030 61 247 4.0 8.0 0.00 0.00 0.00 90 1015.3
20180425172518 61 288 3.0 6.0 0.00 0.00 0.00 90 1015.3
20180425172028 61 261 4.0 7.0 0.00 0.00 0.00 90 1015.2
20180425171537 62 244 4.0 7.0 0.00 0.00 0.00 90 1015.1
20180425171027 62 252 3.0 6.0 0.00 0.00 0.00 90 1015.2
20180425170536 62 292 4.0 8.0 0.00 0.00 0.00 90 1015.2
20180425170025 62 269 3.0 8.0 0.00 0.00 0.00 90 1015.1
20180425165519 62 269 4.0 8.0 0.00 0.00 0.00 89 1015.1
20180425165028 62 264 3.0 7.0 0.00 0.00 0.00 89 1015.1
20180425164538 62 260 5.0 7.0 0.00 0.00 0.00 89 1015.0
20180425164028 62 272 4.0 7.0 0.00 0.00 0.00 89 1015.0
20180425163537 62 272 3.0 6.0 0.00 0.00 0.00 89 1015.1
20180425163026 63 263 4.0 8.0 0.00 0.00 0.00 89 1015.1
20180425162536 63 278 4.0 7.0 0.00 0.00 0.00 89 1015.1
20180425162024 63 264 4.0 8.0 0.00 0.00 0.00 89 1015.1
20180425161534 63 265 3.0 8.0 0.00 0.00 0.00 89 1015.1
20180425161027 63 263 3.0 9.0 0.00 0.00 0.00 88 1015.1
20180425160538 63 250 5.0 9.0 0.00 0.00 0.00 88 1015.2
20180425160028 63 249 4.0 8.0 0.00 0.00 0.00 88 1015.3
20180425155538 63 253 4.0 8.0 0.00 0.00 0.00 88 1015.3
20180425155027 63 238 3.0 8.0 0.00 0.00 0.00 88 1015.4
20180425154538 63 263 5.0 8.0 0.00 0.00 0.00 88 1015.4
20180425154026 63 264 3.0 8.0 0.00 0.00 0.00 87 1015.4
20180425153537 63 254 5.0 8.0 0.00 0.00 0.00 87 1015.5
20180425153023 63 257 3.0 7.0 0.00 0.00 0.00 87 1015.4
20180425152537 63 259 4.0 7.0 0.00 0.00 0.00 87 1015.4
20180425152027 63 265 3.0 7.0 0.00 0.00 0.00 87 1015.3
20180425151538 63 270 4.0 7.0 0.00 0.00 0.00 86 1015.3
20180425151027 63 265 4.0 8.0 0.00 0.00 0.00 86 1015.1
20180425150518 63 269 4.0 8.0 0.00 0.00 0.00 86 1015.2
20180425150029 64 265 4.0 6.0 0.00 0.00 0.00 86 1015.3
20180425145518 64 271 4.0 6.0 0.00 0.00 0.00 86 1015.3
20180425145025 64 284 3.0 6.0 0.00 0.00 0.00 85 1015.2
20180425144532 64 268 3.0 6.0 0.00 0.00 0.00 85 1015.3
20180425144023 64 266 3.0 5.0 0.00 0.00 0.00 85 1015.4
20180425143530 64 266 3.0 6.0 0.00 0.00 0.00 85 1015.4
20180425143021 64 270 4.0 6.0 0.00 0.00 0.00 84 1015.6
20180425142529 64 234 3.0 6.0 0.00 0.00 0.00 84 1015.6
20180425142019 64 258 3.0 6.0 0.00 0.00 0.00 84 1015.7
20180425141529 65 255 3.0 7.0 0.00 0.00 0.00 84 1015.7
20180425141019 65 232 3.0 8.0 0.00 0.00 0.00 83 1015.8
20180425140527 65 230 6.0 8.0 0.00 0.00 0.00 82 1015.9
20180425140022 65 235 3.0 8.0 0.00 0.00 0.00 82 1015.9
20180425135531 65 273 3.0 9.0 0.00 0.00 0.00 82 1015.9
20180425135020 65 244 5.0 9.0 0.00 0.00 0.00 82 1015.9
20180425134531 65 234 1.0 7.0 0.00 0.00 0.00 82 1015.9
20180425134021 66 265 3.0 7.0 0.00 0.00 0.00 81 1016.0
20180425133530 66 275 4.0 7.0 0.00 0.00 0.00 81 1016.1
20180425133022 66 251 2.0 7.0 0.00 0.00 0.00 81 1016.1
20180425132531 66 229 0.0 5.0 0.00 0.00 0.00 82 1016.1
20180425132021 66 243 3.0 8.0 0.00 0.00 0.00 82 1016.1
20180425131536 66 276 4.0 8.0 0.00 0.00 0.00 81 1016.2
20180425131024 66 236 4.0 8.0 0.00 0.00 0.00 81 1016.3
20180425130529 66 238 5.0 8.0 0.00 0.00 0.00 81 1016.3
20180425130037 66 236 5.0 7.0 0.00 0.00 0.00 82 1016.4
20180425125526 66 254 3.0 7.0 0.00 0.00 0.00 81 1016.4
20180425125036 66 248 3.0 7.0 0.00 0.00 0.00 81 1016.3
20180425124527 66 286 3.0 7.0 0.00 0.00 0.00 80 1016.2
20180425124036 66 230 2.0 8.0 0.00 0.00 0.00 81 1016.2
20180425123524 66 261 4.0 8.0 0.00 0.00 0.00 80 1016.2
20180425123019 66 238 3.0 8.0 0.00 0.00 0.00 82 1016.2
20180425122529 66 243 3.0 8.0 0.00 0.00 0.00 81 1016.2
20180425122018 66 231 4.0 7.0 0.00 0.00 0.00 81 1016.2
20180425121529 66 232 3.0 7.0 0.00 0.00 0.00 81 1016.2
20180425121037 66 240 4.0 7.0 0.00 0.00 0.00 80 1016.3
20180425120525 66 255 2.0 7.0 0.00 0.00 0.00 81 1016.2
20180425120032 66 285 4.0 7.0 0.00 0.00 0.00 81 1016.1
20180425115537 66 252 3.0 7.0 0.00 0.00 0.00 81 1016.1
20180425115027 66 240 3.0 9.0 0.00 0.00 0.00 82 1016.3
20180425114522 66 246 4.0 9.0 0.00 0.00 0.00 81 1016.4
20180425114032 66 276 4.0 8.0 0.00 0.00 0.00 81 1016.5
20180425113523 66 247 5.0 11.0 0.00 0.00 0.00 81 1016.5
20180425113032 66 258 5.0 11.0 0.00 0.00 0.00 81 1016.5
20180425112523 66 252 5.0 8.0 0.00 0.00 0.00 81 1016.6
20180425112032 65 259 5.0 8.0 0.00 0.00 0.00 81 1016.5
20180425111524 66 251 4.0 9.0 0.00 0.00 0.00 80 1016.5
20180425111032 66 308 4.0 9.0 0.00 0.00 0.00 79 1016.5
20180425110526 67 284 3.0 7.0 0.00 0.00 0.00 78 1016.6
20180425110036 67 244 3.0 6.0 0.00 0.00 0.00 79 1016.7
20180425105525 66 265 4.0 6.0 0.00 0.00 0.00 79 1016.9
20180425105033 66 254 3.0 8.0 0.00 0.00 0.00 79 1016.9
20180425104525 66 269 5.0 8.0 0.00 0.00 0.00 79 1017.0
20180425104033 66 240 4.0 6.0 0.00 0.00 0.00 79 1017.1
20180425103523 66 255 3.0 6.0 0.00 0.00 0.00 79 1017.1
20180425103032 66 260 2.0 6.0 0.00 0.00 0.00 80 1017.2
20180425102522 66 254 3.0 7.0 0.00 0.00 0.00 80 1017.3
20180425102035 66 263 4.0 7.0 0.00 0.00 0.00 80 1017.3
20180425101526 66 261 4.0 6.0 0.00 0.00 0.00 81 1017.4
20180425101034 65 267 3.0 6.0 0.00 0.00 0.00 81 1017.5
20180425100526 65 262 3.0 7.0 0.00 0.00 0.00 81 1017.5
20180425100036 65 251 3.0 7.0 0.00 0.00 0.00 82 1017.6
20180425095525 65 242 2.0 5.0 0.00 0.00 0.00 81 1017.8
20180425095036 66 246 3.0 5.0 0.00 0.00 0.00 82 1017.8
20180425094525 65 259 2.0 4.0 0.00 0.00 0.00 82 1017.8
20180425094020 65 263 0.0 6.0 0.00 0.00 0.00 84 1017.9
20180425093530 64 260 1.0 6.0 0.00 0.00 0.00 84 1018.0
20180425093021 64 257 3.0 6.0 0.00 0.00 0.00 84 1018.1
20180425092530 64 252 3.0 6.0 0.00 0.00 0.00 84 1018.2
20180425092021 64 293 2.0 4.0 0.00 0.00 0.00 85 1018.3
20180425091530 64 239 1.0 4.0 0.00 0.00 0.00 85 1018.3
20180425091020 64 239 1.0 7.0 0.00 0.00 0.00 86 1018.3
20180425090530 64 237 2.0 7.0 0.00 0.00 0.00 87 1018.3
20180425090021 63 275 2.0 6.0 0.00 0.00 0.00 88 1018.4
20180425085534 63 288 4.0 5.0 0.00 0.00 0.00 88 1018.3
20180425085024 63 257 3.0 5.0 0.00 0.00 0.00 89 1018.4
20180425084535 63 288 2.0 5.0 0.00 0.00 0.00 89 1018.4
20180425084023 63 111 0.0 1.0 0.00 0.00 0.00 90 1018.4
20180425083532 62 111 0.0 1.0 0.00 0.00 0.00 92 1018.4
20180425083022 62 111 0.0 1.0 0.00 0.00 0.00 92 1018.3
20180425082532 62 111 0.0 1.0 0.00 0.00 0.00 93 1018.3
20180425082022 61 111 0.0 0.0 0.00 0.00 0.00 93 1018.2
20180425081533 61 111 0.0 1.0 0.00 0.00 0.00 93 1018.3
20180425081026 61 111 0.0 1.0 0.00 0.00 0.00 93 1018.3
20180425080537 61 111 0.0 1.0 0.00 0.00 0.00 94 1018.3
20180425080026 61 111 0.0 0.0 0.00 0.00 0.00 94 1018.2
20180425075537 61 111 0.0 0.0 0.00 0.00 0.00 94 1018.1
20180425075027 60 111 0.0 0.0 0.00 0.00 0.00 94 1018.1
20180425074518 60 111 0.0 0.0 0.00 0.00 0.00 94 1018.1
20180425074027 60 111 0.0 0.0 0.00 0.00 0.00 94 1018.1
20180425073518 60 111 0.0 0.0 0.00 0.00 0.00 94 1018.2
20180425073033 60 111 0.0 0.0 0.00 0.00 0.00 94 1018.2
20180425072522 60 111 0.0 0.0 0.00 0.00 0.00 94 1018.2
20180425072032 59 111 0.0 0.0 0.00 0.00 0.00 94 1018.1
20180425071522 59 111 0.0 0.0 0.00 0.00 0.00 94 1018.1
20180425071032 59 111 0.0 1.0 0.00 0.00 0.00 94 1018.0
20180425070523 59 111 0.0 4.0 0.00 0.00 0.00 94 1017.9
20180425070033 59 111 0.0 4.0 0.00 0.00 0.00 94 1017.9
20180425065522 59 113 1.0 4.0 0.00 0.00 0.00 94 1017.8
20180425065032 59 114 1.0 3.0 0.00 0.00 0.00 94 1017.7
20180425064527 59 117 0.0 0.0 0.00 0.00 0.00 94 1017.7
20180425064037 59 117 0.0 0.0 0.00 0.00 0.00 94 1017.7
20180425063528 59 117 0.0 0.0 0.00 0.00 0.00 94 1017.7
20180425063037 58 117 0.0 0.0 0.00 0.00 0.00 94 1017.7
20180425062527 58 117 0.0 0.0 0.00 0.00 0.00 94 1017.6
20180425062037 58 117 0.0 0.0 0.00 0.00 0.00 94 1017.6
20180425061527 58 117 0.0 0.0 0.00 0.00 0.00 94 1017.6
20180425061036 58 117 0.0 0.0 0.00 0.00 0.00 94 1017.6
20180425060529 58 117 0.0 0.0 0.00 0.00 0.00 94 1017.6
20180425060020 58 118 0.0 0.0 0.00 0.00 0.00 94 1017.5
20180425055529 58 117 0.0 0.0 0.00 0.00 0.00 94 1017.5
20180425055020 58 117 0.0 2.0 0.00 0.00 0.00 94 1017.4
20180425054530 58 118 0.0 2.0 0.00 0.00 0.00 94 1017.3
20180425054019 58 117 0.0 0.0 0.00 0.00 0.00 94 1017.4
20180425053529 58 118 0.0 0.0 0.00 0.00 0.00 94 1017.4
20180425053021 57 117 0.0 0.0 0.00 0.00 0.00 94 1017.4
20180425052529 57 118 0.0 0.0 0.00 0.00 0.00 93 1017.5
20180425052023 57 117 0.0 0.0 0.00 0.00 0.00 93 1017.5
20180425051533 57 117 0.0 0.0 0.00 0.00 0.00 93 1017.5
20180425051023 57 117 0.0 0.0 0.00 0.00 0.00 93 1017.5
20180425050532 57 117 0.0 0.0 0.00 0.00 0.00 93 1017.4
20180425050022 57 117 0.0 0.0 0.00 0.00 0.00 93 1017.4
20180425045532 57 117 0.0 0.0 0.00 0.00 0.00 93 1017.3
20180425045023 57 118 0.0 0.0 0.00 0.00 0.00 93 1017.3
20180425044533 57 118 0.0 0.0 0.00 0.00 0.00 93 1017.3
20180425044027 57 118 0.0 0.0 0.00 0.00 0.00 93 1017.2
20180425043536 56 117 0.0 0.0 0.00 0.00 0.00 93 1017.1
20180425043027 56 118 0.0 0.0 0.00 0.00 0.00 93 1017.1
20180425042536 56 117 0.0 0.0 0.00 0.00 0.00 93 1017.2
20180425042027 56 117 0.0 0.0 0.00 0.00 0.00 93 1017.1
20180425041535 56 118 0.0 0.0 0.00 0.00 0.00 93 1017.1
20180425041024 56 117 0.0 0.0 0.00 0.00 0.00 93 1017.0
20180425040534 56 117 0.0 0.0 0.00 0.00 0.00 93 1017.0
20180425040023 56 117 0.0 0.0 0.00 0.00 0.00 93 1017.1
20180425035537 56 117 0.0 0.0 0.00 0.00 0.00 93 1017.1
20180425035026 56 117 0.0 0.0 0.00 0.00 0.00 93 1017.1
20180425034536 56 117 0.0 0.0 0.00 0.00 0.00 93 1017.1
20180425034026 56 118 0.0 0.0 0.00 0.00 0.00 93 1017.2
20180425033536 56 117 0.0 0.0 0.00 0.00 0.00 93 1017.1
20180425033026 56 117 0.0 0.0 0.00 0.00 0.00 92 1017.1
20180425032534 56 118 0.0 0.0 0.00 0.00 0.00 93 1017.1
20180425032024 56 117 0.0 0.0 0.00 0.00 0.00 93 1017.1
20180425031534 56 117 0.0 0.0 0.00 0.00 0.00 93 1017.1
20180425031028 56 117 0.0 0.0 0.00 0.00 0.00 92 1017.0
20180425030537 56 117 0.0 0.0 0.00 0.00 0.00 92 1016.9
20180425030028 56 117 0.0 0.0 0.00 0.00 0.00 92 1016.9
20180425025518 56 118 0.0 0.0 0.00 0.00 0.00 92 1016.9
20180425025029 56 117 0.0 0.0 0.00 0.00 0.00 92 1016.8
20180425024519 56 117 0.0 0.0 0.00 0.00 0.00 92 1016.7
20180425024030 56 117 0.0 0.0 0.00 0.00 0.00 92 1016.7
20180425023520 56 117 0.0 0.0 0.00 0.00 0.00 92 1016.6
20180425023035 56 117 0.0 0.0 0.00 0.00 0.00 92 1016.6
20180425022525 56 118 0.0 0.0 0.00 0.00 0.00 92 1016.5
20180425022034 56 117 0.0 0.0 0.00 0.00 0.00 92 1016.5
20180425021525 56 118 0.0 0.0 0.00 0.00 0.00 92 1016.4
20180425021035 56 117 0.0 0.0 0.00 0.00 0.00 92 1016.4
20180425020526 56 117 0.0 0.0 0.00 0.00 0.00 92 1016.3
20180425020036 56 117 0.0 0.0 0.00 0.00 0.00 91 1016.4
20180425015527 57 118 0.0 0.0 0.00 0.00 0.00 91 1016.4
20180425015021 57 117 0.0 0.0 0.00 0.00 0.00 91 1016.5
20180425014531 57 117 0.0 0.0 0.00 0.00 0.00 91 1016.4
20180425014021 57 117 0.0 0.0 0.00 0.00 0.00 91 1016.4
20180425013532 57 118 0.0 0.0 0.00 0.00 0.00 91 1016.4
20180425013022 57 117 0.0 0.0 0.00 0.00 0.00 91 1016.5
20180425012532 57 117 0.0 0.0 0.00 0.00 0.00 91 1016.6
20180425012022 57 117 0.0 0.0 0.00 0.00 0.00 91 1016.6
20180425011533 57 117 0.0 0.0 0.00 0.00 0.00 91 1016.6
20180425011023 57 117 0.0 0.0 0.00 0.00 0.00 91 1016.6
20180425010537 57 117 0.0 0.0 0.00 0.00 0.00 91 1016.7
20180425010027 57 118 0.0 0.0 0.00 0.00 0.00 91 1016.7
20180425005537 57 117 0.0 0.0 0.00 0.00 0.00 91 1016.7
20180425005027 57 117 0.0 0.0 0.00 0.00 0.00 91 1016.7
20180425004518 57 117 0.0 0.0 0.00 0.00 0.00 91 1016.7
20180425004028 57 118 0.0 0.0 0.00 0.00 0.00 91 1016.7
20180425003519 58 117 0.0 0.0 0.00 0.00 0.00 91 1016.6
20180425003029 58 117 0.0 0.0 0.00 0.00 0.00 91 1016.7
20180425002524 58 117 0.0 0.0 0.00 0.00 0.00 90 1016.8
20180425002034 58 117 0.0 0.0 0.00 0.00 0.00 90 1016.8
20180425001524 58 117 0.0 0.0 0.00 0.00 0.00 90 1016.8
20180425001035 58 117 0.0 0.0 0.00 0.00 0.00 90 1017.0
20180425000525 58 117 0.0 0.0 0.00 0.00 0.00 90 1017.0
20180425000036 58 117 0.0 0.0 0.00 0.00 0.00 90 1017.1
20180424235526 58 117 0.0 0.0 0.00 0.00 0.00 90 1017.2
20180424235037 58 117 0.0 0.0 0.00 0.00 0.00 90 1017.2
20180424234527 58 117 0.0 0.0 0.00 0.00 0.00 89 1017.2
20180424234022 58 117 0.0 0.0 0.00 0.00 0.00 89 1017.2
20180424233532 58 117 0.0 0.0 0.00 0.00 0.00 90 1017.2
20180424233022 58 118 0.0 0.0 0.00 0.00 0.00 89 1017.2
20180424232532 59 117 0.0 0.0 0.00 0.00 0.00 89 1017.2
20180424232022 59 117 0.0 0.0 0.00 0.00 0.00 89 1017.3
20180424231533 59 118 0.0 0.0 0.00 0.00 0.00 89 1017.3
20180424231023 59 117 0.0 0.0 0.00 0.00 0.00 89 1017.4
20180424230532 59 117 0.0 0.0 0.00 0.00 0.00 89 1017.4
20180424230026 59 117 0.0 0.0 0.00 0.00 0.00 89 1017.4
20180424225536 59 118 0.0 0.0 0.00 0.00 0.00 89 1017.4
20180424225026 59 117 0.0 0.0 0.00 0.00 0.00 89 1017.4
20180424224537 60 117 0.0 0.0 0.00 0.00 0.00 89 1017.4
20180424224027 60 117 0.0 0.0 0.00 0.00 0.00 89 1017.5
20180424223537 60 117 0.0 0.0 0.00 0.00 0.00 89 1017.4
20180424223026 60 118 0.0 0.0 0.00 0.00 0.00 88 1017.5
20180424222536 60 117 0.0 0.0 0.00 0.00 0.00 88 1017.5
20180424222025 60 117 0.0 0.0 0.00 0.00 0.00 88 1017.5
20180424221520 60 117 0.0 0.0 0.00 0.00 0.00 88 1017.4
20180424221029 60 117 0.0 0.0 0.00 0.00 0.00 88 1017.4
20180424220519 60 117 0.0 0.0 0.00 0.00 0.00 88 1017.5
20180424220028 60 117 0.0 0.0 0.00 0.00 0.00 88 1017.5
20180424215518 60 117 0.0 0.0 0.00 0.00 0.00 88 1017.5
20180424215028 60 117 0.0 0.0 0.00 0.00 0.00 88 1017.5
20180424214536 60 117 0.0 0.0 0.00 0.00 0.00 87 1017.5
20180424214025 60 117 0.0 0.0 0.00 0.00 0.00 87 1017.5
20180424213520 61 117 0.0 0.0 0.00 0.00 0.00 87 1017.5
20180424213029 61 117 0.0 0.0 0.00 0.00 0.00 87 1017.4
20180424212538 61 118 0.0 0.0 0.00 0.00 0.00 87 1017.5
20180424212026 61 117 0.0 0.0 0.00 0.00 0.00 87 1017.5
20180424211536 61 117 0.0 0.0 0.00 0.00 0.00 86 1017.6
20180424211025 61 117 0.0 0.0 0.00 0.00 0.00 86 1017.6
20180424210535 61 118 0.0 0.0 0.00 0.00 0.00 86 1017.5
20180424210024 61 117 0.0 0.0 0.00 0.00 0.00 86 1017.5
20180424205534 61 118 0.0 0.0 0.00 0.00 0.00 86 1017.6
20180424205028 61 117 0.0 0.0 0.00 0.00 0.00 86 1017.6
20180424204538 61 117 0.0 0.0 0.00 0.00 0.00 86 1017.6
20180424204028 61 117 0.0 0.0 0.00 0.00 0.00 85 1017.6
20180424203537 61 117 0.0 0.0 0.00 0.00 0.00 85 1017.6
20180424203028 62 117 0.0 0.0 0.00 0.00 0.00 85 1017.5
20180424202537 62 118 0.0 0.0 0.00 0.00 0.00 85 1017.5
20180424202026 62 117 0.0 0.0 0.00 0.00 0.00 85 1017.5
20180424201536 62 118 0.0 0.0 0.00 0.00 0.00 85 1017.5
20180424201025 62 117 0.0 0.0 0.00 0.00 0.00 85 1017.4
20180424200519 62 117 0.0 0.0 0.00 0.00 0.00 84 1017.5
20180424200028 62 117 0.0 0.0 0.00 0.00 0.00 84 1017.4
20180424195537 62 117 0.0 0.0 0.00 0.00 0.00 84 1017.4
20180424195028 62 117 0.0 0.0 0.00 0.00 0.00 84 1017.3
20180424194536 62 117 0.0 0.0 0.00 0.00 0.00 83 1017.3
20180424194026 62 118 0.0 0.0 0.00 0.00 0.00 83 1017.4
20180424193535 62 117 0.0 0.0 0.00 0.00 0.00 83 1017.3
20180424193025 63 117 0.0 0.0 0.00 0.00 0.00 83 1017.3
20180424192533 63 117 0.0 0.0 0.00 0.00 0.00 83 1017.3
20180424192025 63 118 0.0 0.0 0.00 0.00 0.00 83 1017.2
20180424191536 63 117 0.0 0.0 0.00 0.00 0.00 83 1017.2
20180424191025 63 117 0.0 0.0 0.00 0.00 0.00 83 1017.2
20180424190535 63 117 0.0 0.0 0.00 0.00 0.00 82 1017.2
20180424190024 63 117 0.0 0.0 0.00 0.00 0.00 82 1017.2
20180424185533 63 117 0.0 0.0 0.00 0.00 0.00 82 1017.1
20180424185023 64 117 0.0 0.0 0.00 0.00 0.00 81 1017.1
20180424184533 64 117 0.0 0.0 0.00 0.00 0.00 81 1016.9
20180424184027 64 122 0.0 0.0 0.00 0.00 0.00 80 1016.9
20180424183537 64 122 0.0 0.0 0.00 0.00 0.00 79 1016.8
20180424183027 65 122 0.0 0.0 0.00 0.00 0.00 78 1016.8
20180424182537 65 122 0.0 0.0 0.00 0.00 0.00 78 1016.8
20180424182027 66 122 0.0 1.0 0.00 0.00 0.00 77 1016.7
20180424181536 66 122 0.0 1.0 0.00 0.00 0.00 77 1016.7
20180424181025 66 122 0.0 1.0 0.00 0.00 0.00 76 1016.8
20180424180534 66 121 0.0 3.0 0.00 0.00 0.00 75 1016.7